Tracking 27122 objects as of 26-Mar-2023
HD Live streaming from Space Station
objects crossing your sky now

STARLINK-2240

Track STARLINK-2240 now!
10-day predictions
STARLINK-2240 is classified as:


NORAD ID: 48585
Int'l Code: 2021-041AJ
Perigee: 553.6 km
Apogee: 555.3 km
Inclination: 53.1 °
Period: 95.6 minutes
Semi major axis: 6925 km
RCS: Unknown
Launch date: May 15, 2021
Source: United States (US)
Launch site: AIR FORCE EASTERN TEST RANGE (AFETR)
Your satellite tracking list
Your tracking list is empty




NASA's NSSDC Master Catalog

Two Line Element Set (TLE):
1 48585U 21041AJ  23084.88557118 -.00003488  00000-0 -21558-3 0  9997
2 48585  53.0540 309.0472 0001277  60.9323 299.1794 15.06362739102303
Source of the keplerian elements: AFSPC